Location: ??????
(55.7522°N, 37.6156°E)
Time: 17:32:36
(UTC+00:00)

NOSS 2-1 (D) - Pass Details

Date: 14 June 2025
Orbit: 377 x 1695 km, 63.3° (Epoch: 12 July)

Event Time Altitude Azimuth Distance (km) Brightness Sun altitude
Rises 20:14:52 0° 308° (NW) 2,292 7.5 -9.3°
Reaches altitude 10° 20:16:45 10° 312° (NW) 1,485 6.5 -9.4°
Maximum altitude 20:19:54 62° 34° (NE) 527 3.4 -9.5°
Drops below altitude 10° 20:23:52 10° 116° (ESE) 1,856 5.6 -9.7°
Enters shadow 20:25:28 - 119° (ESE) 2,527 6.3 -9.8°
